Location: Dompnac
(44.5644°N, 4.1026°E)
Time: 10:54:54
(UTC+00:00)

Cosmos 2298 Rocket - Pass Details

Date: 19 September 2020
Orbit: 777 x 783 km, 74.0° (Epoch: 30 October)

Event Time Altitude Azimuth Distance (km) Brightness Sun altitude
Rises 19:22:50 0° 197° (SSW) 3,256 7.2 -17.7°
Reaches altitude 10° 19:25:12 10° 197° (SSW) 2,332 6.5 -18.1°
Maximum altitude 19:30:31 84° 110° (ESE) 793 3.9 -19.0°
Drops below altitude 10° 19:35:52 10° 22° (NNE) 2,347 6.5 -19.9°
Sets 19:38:15 0° 22° (NNE) 3,279 7.3 -20.3°
